This is the latest recevied weather packets stored in our database for station/object Kirchdorf. If no packets are shown the sender has not sent any weather packets the latest 10 day(s).
| Time | Temp. | Humidity | Pressure | Rain* | Wind** | Luminosity | Snow |
|---|---|---|---|---|---|---|---|
| 1777930329 | 13.89° C | 76% | 1012.1 hPa | 0 mm | - | - | - |
| 1777928529 | 14.44° C | 72% | 1012.2 hPa | 0 mm | - | - | - |
| 1777926729 | 16.11° C | 68% | 1012.2 hPa | 0 mm | - | - | - |
| 1777924929 | 16.11° C | 69% | 1012.3 hPa | 0 mm | - | - | - |
| 1777923129 | 18.33° C | 59% | 1012.3 hPa | 0 mm | - | - | - |
| 1777921329 | 18.89° C | 56% | 1011.7 hPa | 0 mm | - | - | - |
| 1777919529 | 20° C | 43% | 1011.3 hPa | 0 mm | - | - | - |
| 1777917734 | 20.56° C | 47% | 1011.4 hPa | 0 mm | - | - | - |
| 1777915929 | 21.11° C | 53% | 1011.1 hPa | 0 mm | - | - | - |
| 1777914130 | 21.11° C | 52% | 1011 hPa | 0 mm | - | - | - |
| 1777912332 | 21.67° C | 51% | 1011.1 hPa | 0 mm | - | - | - |
| 1777910530 | 21.67° C | 50% | 1011.2 hPa | 0 mm | - | - | - |
| 1777908732 | 22.22° C | 49% | 1011.2 hPa | 0 mm | - | - | - |
| 1777906930 | 22.22° C | 47% | 1011.2 hPa | 0 mm | - | - | - |
| 1777905129 | 22.22° C | 47% | 1011.4 hPa | 0 mm | - | - | - |
| 1777903330 | 22.22° C | 46% | 1011.9 hPa | 0 mm | - | - | - |
| 1777901532 | 22.78° C | 49% | 1011.9 hPa | 0 mm | - | - | - |
| 1777899735 | 21.67° C | 49% | 1012.2 hPa | 0 mm | - | - | - |
| 1777897935 | 21.11° C | 50% | 1012.4 hPa | 0 mm | - | - | - |
| 1777896130 | 21.67° C | 53% | 1012.4 hPa | 0 mm | - | - | - |
| 1777894331 | 21.11° C | 48% | 1012.7 hPa | 0 mm | - | - | - |
| 1777892530 | 21.11° C | 51% | 1012.8 hPa | 0 mm | - | - | - |
| 1777890735 | 21.11° C | 47% | 1013.1 hPa | 0 mm | - | - | - |
| 1777888932 | 21.11° C | 51% | 1013.5 hPa | 0 mm | - | - | - |
| 1777887130 | 20° C | 52% | 1013.5 hPa | 0 mm | - | - | - |
* Rain since midnight (hover to see other rain measurements)
** Current wind speed in m/s (hover to see current wind gust speed)